KC5L-11 Weather Reports


time (UTC)temp
C
wind
direction
speed
KPH
gust
KPH
rain 1hr
cm
rain 24hr
cm
rain mn
cm
humidity
%
barometer
mb
20260506175649 30 236 6.4 0.0 0.00 0.00 0.00 1001.7
20260506174513 30 235 9.7 0.0 0.00 0.00 0.00 1001.8
20260506173335 29 249 8.0 0.0 0.00 0.00 0.00 1001.8
20260506172158 29 180 6.4 0.0 0.00 0.00 0.00 1001.8
20260506171022 29 217 0.0 0.0 0.00 0.00 0.00 1001.8
20260506165844 29 219 4.8 0.0 0.00 0.00 0.00 1001.8
20260506164708 28 307 0.0 0.0 0.00 0.00 0.00 1001.7
20260506163531 28 284 0.0 0.0 0.00 0.00 0.00 1001.7
20260506161217 28 42 0.0 0.0 0.00 0.00 0.00 1001.6
20260506160040 27 42 0.0 0.0 0.00 0.00 0.00 1001.4
20260506154903 27 56 4.8 0.0 0.00 0.00 0.00 1001.3
20260506153726 27 41 0.0 0.0 0.00 0.00 0.00 1001.1
20260506152549 26 39 0.0 0.0 0.00 0.00 0.00 1001.0
20260506151412 26 35 0.0 0.0 0.00 0.00 0.00 1000.8
20260506150235 26 325 4.8 0.0 0.00 0.00 0.00 1000.6
20260506145058 26 325 9.7 0.0 0.00 0.00 0.00 1000.3
20260506143921 26 11 0.0 0.0 0.00 0.00 0.00 1000.2
20260506142744 25 28 6.4 0.0 0.00 0.00 0.00 1000.0
20260506141607 25 3 4.8 0.0 0.00 0.00 0.00 1000.0
20260506140430 25 4 12.9 0.0 0.00 0.00 0.00 999.9
20260506135253 25 17 0.0 0.0 0.00 0.00 0.00 999.8
20260506134116 24 11 6.4 0.0 0.00 0.00 0.00 999.8
20260506132939 24 35 0.0 0.0 0.00 0.00 0.00 999.8
20260506131801 24 35 8.0 0.0 0.00 0.00 0.00 999.7
20260506130626 24 359 0.0 0.0 0.00 0.00 0.00 1009.3
20260506125448 23 342 6.4 0.0 0.00 0.00 0.00 999.6
20260506124310 23 349 4.8 0.0 0.00 0.00 0.00 999.6
20260506123134 23 31 0.0 0.0 0.00 0.00 0.00 999.7
20260506121956 23 31 0.0 0.0 0.00 0.00 0.00 999.7
20260506120820 23 31 0.0 0.0 0.00 0.00 0.00 999.6
20260506115642 23 31 0.0 0.0 0.00 0.00 0.00 999.6
20260506114505 23 31 0.0 0.0 0.00 0.00 0.00 999.6
20260506113330 23 31 0.0 0.0 0.00 0.00 0.00 999.4
20260506112152 23 31 0.0 0.0 0.00 0.00 0.00 999.4
20260506111015 23 31 0.0 0.0 0.00 0.00 0.00 999.4
20260506105838 23 340 0.0 0.0 0.00 0.00 0.00 999.4
20260506104701 23 25 0.0 0.0 0.00 0.00 0.00 999.2
20260506102348 -4 354 9.7 0.0 0.00 0.00 0.00 999.3
20260506101210 24 359 4.8 0.0 0.00 0.00 0.00 999.3
20260506100032 24 345 6.4 0.0 0.00 0.00 0.00 999.3
20260506094855 24 311 9.7 0.0 0.00 0.00 0.00 999.2
20260506092542 24 359 11.3 0.0 0.00 0.00 0.00 999.3
20260506091406 24 24 4.8 0.0 0.00 0.00 0.00 999.5
20260506090228 24 32 3.2 0.0 0.00 0.00 0.00 999.5
20260506085051 24 25 8.0 0.0 0.00 0.00 0.00 999.5
20260506083915 25 44 6.4 0.0 0.00 0.00 0.00 999.4
20260506082738 25 13 8.0 0.0 0.00 0.00 0.00 999.5
20260506081601 25 346 8.0 0.0 0.00 0.00 0.00 999.5
20260506080423 25 359 9.7 0.0 0.00 0.00 0.00 999.6
20260506072933 25 24 6.4 0.0 0.00 0.00 0.00 999.4
20260506071756 25 24 4.8 0.0 0.00 0.00 0.00 999.5
20260506070618 25 34 6.4 0.0 0.00 0.00 0.00 999.5
20260506061950 25 4 14.5 0.0 0.00 0.00 0.00 999.8
20260506060814 25 30 9.7 0.0 0.00 0.00 0.00 1000.0
20260506051008 25 38 8.0 0.0 0.00 0.00 0.00 999.9
20260506044655 25 38 9.7 0.0 0.00 0.00 0.00 1000.0
20260506043517 25 60 11.3 0.0 0.00 0.00 0.00 999.8
20260506042341 25 343 16.1 0.0 0.00 0.00 0.00 999.7
20260506040027 25 311 8.0 0.0 0.00 0.00 0.00 999.7
20260506034850 25 359 0.0 0.0 0.00 0.00 0.00 999.6
20260506033713 25 319 11.3 0.0 0.00 0.00 0.00 999.3
20260506032536 25 332 11.3 0.0 0.00 0.00 0.00 999.1
20260506031359 25 18 3.2 0.0 0.00 0.00 0.00 998.9
20260506030222 25 359 12.9 0.0 0.00 0.00 0.00 998.7
20260506025045 26 352 14.5 0.0 0.00 0.00 0.00 998.4
20260506023908 26 329 12.9 0.0 0.00 0.00 0.00 998.2
20260506022731 26 359 19.3 0.0 0.00 0.00 0.00 998.0
20260506021554 26 68 11.3 0.0 0.00 0.00 0.00 997.8
20260506020419 26 359 9.7 0.0 0.00 0.00 0.00 997.8
20260506015240 27 359 12.9 0.0 0.00 0.00 0.00 997.6
20260506014103 27 8 19.3 0.0 0.00 0.00 0.00 997.4
20260506012927 27 319 0.0 0.0 0.00 0.00 0.00 997.3
20260506011748 27 359 11.3 0.0 0.00 0.00 0.00 997.1
20260506010611 28 0 19.3 0.0 0.00 0.00 0.00 997.0
20260506005434 28 20 12.9 0.0 0.00 0.00 0.00 996.9
20260506004258 29 30 14.5 0.0 0.00 0.00 0.00 996.8
20260506003120 30 352 14.5 0.0 0.00 0.00 0.00 996.5
20260506001943 30 354 19.3 0.0 0.00 0.00 0.00 996.7
20260506000806 31 6 9.7 0.0 0.00 0.00 0.00 996.5
20260505235629 31 4 19.3 0.0 0.00 0.00 0.00 996.4
20260505234452 31 39 6.4 0.0 0.00 0.00 0.00 996.2
20260505233315 32 15 11.3 0.0 0.00 0.00 0.00 996.1
20260505232138 32 41 11.3 0.0 0.00 0.00 0.00 996.1
20260505231002 33 23 12.9 0.0 0.00 0.00 0.00 996.1
20260505225825 33 52 14.5 0.0 0.00 0.00 0.00 996.1
20260505224648 33 359 12.9 0.0 0.00 0.00 0.00 996.1
20260505223511 33 10 9.7 0.0 0.00 0.00 0.00 996.3
20260505222334 33 1 17.7 0.0 0.00 0.00 0.00 996.3
20260505221157 34 6 9.7 0.0 0.00 0.00 0.00 996.4
20260505220020 34 14 14.5 0.0 0.00 0.00 0.00 996.6
20260505214843 33 23 6.4 0.0 0.00 0.00 0.00 996.8
20260505213706 34 1 4.8 0.0 0.00 0.00 0.00 997.0
20260505212529 34 7 6.4 0.0 0.00 0.00 0.00 997.1
20260505211352 34 335 14.5 0.0 0.00 0.00 0.00 997.2
20260505210215 33 338 16.1 0.0 0.00 0.00 0.00 997.5
20260505205038 33 359 14.5 0.0 0.00 0.00 0.00 997.7
20260505203901 33 339 11.3 0.0 0.00 0.00 0.00 997.8
20260505202724 33 37 6.4 0.0 0.00 0.00 0.00 997.9
20260505201547 33 308 0.0 0.0 0.00 0.00 0.00 998.3
20260505200410 33 329 14.5 0.0 0.00 0.00 0.00 998.4
20260505195233 32 267 0.0 0.0 0.00 0.00 0.00 998.5
20260505194056 32 325 12.9 0.0 0.00 0.00 0.00 998.9
20260505192919 32 280 0.0 0.0 0.00 0.00 0.00 999.0
20260505191742 31 41 0.0 0.0 0.00 0.00 0.00 999.3
20260505190605 31 349 0.0 0.0 0.00 0.00 0.00 999.5
20260505185428 31 13 0.0 0.0 0.00 0.00 0.00 999.6
20260505184252 31 65 4.8 0.0 0.00 0.00 0.00 999.8
20260505183115 31 328 11.3 0.0 0.00 0.00 0.00 999.9
20260505181937 31 24 0.0 0.0 0.00 0.00 0.00 999.9
20260505180800 31 354 4.8 0.0 0.00 0.00 0.00 1000.1